TimeCST,TemperatureF,Dew PointF,Humidity,Sea Level PressureIn,VisibilityMPH,Wind Direction,Wind SpeedMPH,Gust SpeedMPH,PrecipitationIn,Events,Conditions,WindDirDegrees,DateUTC
12:23 AM,23.0,17.6,80,30.03,10.0,North,13.8,-,N/A,,Overcast,350,2013-01-13 06:23:00
12:53 AM,24.1,19.0,81,30.11,10.0,NNW,12.7,-,N/A,,Overcast,330,2013-01-13 06:53:00
1:46 AM,21.2,17.6,86,30.07,10.0,NNW,12.7,-,N/A,,Mostly Cloudy,340,2013-01-13 07:46:00
1:53 AM,21.9,18.0,85,30.08,10.0,North,8.1,-,N/A,,Mostly Cloudy,360,2013-01-13 07:53:00
2:18 AM,21.2,17.6,86,30.07,10.0,North,8.1,-,N/A,,Mostly Cloudy,360,2013-01-13 08:18:00
2:53 AM,21.9,18.0,85,30.11,10.0,North,6.9,-,N/A,,Overcast,350,2013-01-13 08:53:00
3:34 AM,21.2,15.8,80,30.08,10.0,North,12.7,-,N/A,,Overcast,350,2013-01-13 09:34:00
3:53 AM,21.0,16.0,81,30.11,10.0,North,11.5,-,N/A,,Mostly Cloudy,360,2013-01-13 09:53:00
4:01 AM,21.2,15.8,80,30.10,10.0,North,9.2,-,N/A,,Mostly Cloudy,350,2013-01-13 10:01:00
4:53 AM,21.0,16.0,81,30.16,10.0,North,9.2,-,N/A,,Overcast,350,2013-01-13 10:53:00
5:19 AM,19.4,15.8,86,30.12,1.8,North,10.4,-,0.00,Snow,Light Snow,350,2013-01-13 11:19:00
5:46 AM,19.4,17.6,93,30.15,3.0,NNW,10.4,-,0.00,Snow,Light Snow,340,2013-01-13 11:46:00
5:53 AM,19.9,17.1,89,30.20,4.0,NNW,8.1,-,0.00,Snow,Light Snow,340,2013-01-13 11:53:00
5:55 AM,19.4,17.6,93,30.16,5.0,NNW,9.2,-,0.00,Snow,Light Snow,330,2013-01-13 11:55:00
6:28 AM,19.4,15.8,86,30.14,10.0,North,11.5,-,0.00,,Mostly Cloudy,350,2013-01-13 12:28:00
6:53 AM,19.0,14.0,81,30.17,10.0,North,11.5,-,0.00,,Mostly Cloudy,350,2013-01-13 12:53:00
7:53 AM,17.1,12.0,81,30.21,10.0,North,10.4,-,N/A,,Clear,350,2013-01-13 13:53:00
8:53 AM,17.1,12.0,81,30.26,10.0,North,6.9,-,N/A,,Clear,350,2013-01-13 14:53:00
9:53 AM,19.0,12.9,77,30.30,10.0,North,10.4,-,N/A,,Clear,350,2013-01-13 15:53:00
10:53 AM,19.9,15.1,81,30.29,10.0,NNW,13.8,-,N/A,,Clear,330,2013-01-13 16:53:00
11:53 AM,21.0,16.0,81,30.27,10.0,NW,13.8,-,N/A,,Clear,320,2013-01-13 17:53:00
12:22 PM,21.2,17.6,86,30.24,10.0,NNW,15.0,-,N/A,,Mostly Cloudy,330,2013-01-13 18:22:00
12:53 PM,23.0,17.1,78,30.27,10.0,NW,12.7,-,N/A,,Scattered Clouds,320,2013-01-13 18:53:00
1:53 PM,23.0,17.1,78,30.28,10.0,NW,10.4,-,N/A,,Clear,320,2013-01-13 19:53:00
2:53 PM,24.8,17.6,74,30.26,10.0,NW,11.5,-,N/A,,Clear,320,2013-01-13 20:53:00
3:53 PM,24.1,17.1,75,30.31,10.0,North,8.1,-,N/A,,Clear,350,2013-01-13 21:53:00
4:53 PM,23.0,16.0,74,30.31,10.0,NNW,6.9,-,N/A,,Clear,340,2013-01-13 22:53:00
5:53 PM,21.0,15.1,78,30.33,10.0,Calm,Calm,-,N/A,,Clear,0,2013-01-13 23:53:00
6:53 PM,19.0,16.0,88,30.34,10.0,Calm,Calm,-,N/A,,Clear,0,2013-01-14 00:53:00
7:53 PM,18.0,15.1,88,30.34,10.0,Calm,Calm,-,N/A,,Clear,0,2013-01-14 01:53:00
8:53 PM,14.0,10.9,88,30.36,9.0,SSE,4.6,-,N/A,,Clear,160,2013-01-14 02:53:00
9:53 PM,16.0,12.9,88,30.36,10.0,Calm,Calm,-,N/A,,Clear,0,2013-01-14 03:53:00
10:53 PM,15.1,12.9,91,30.39,4.0,Calm,Calm,-,N/A,,Clear,0,2013-01-14 04:53:00
11:53 PM,15.1,12.0,88,30.41,5.0,Calm,Calm,-,N/A,,Clear,0,2013-01-14 05:53:00